Location: Ingoldesthorpe
(52.8667°N, 0.5167°E)
Time: 20:57:14
(UTC+00:00)

Cosmos 1842 Rocket - Pass Details

Date: 19 May 2025
Orbit: 601 x 626 km, 82.5° (Epoch: 21 June)

Event Time Altitude Azimuth Distance (km) Brightness Sun altitude
Exits shadow 23:02:51 27° 196° (SSW) 1,162 4.5 -16.3°
Maximum altitude 23:05:09 81° 281° (W) 616 3.5 -16.4°
Drops below altitude 10° 23:09:29 10° 9° (N) 1,958 7.2 -16.5°
Sets 23:11:43 0° 11° (N) 2,868 8.3 -16.6°
